Weather History for Parkersburg, WV

Change the Weather History Date:

Monday, May 27, 2013

  Actual Average Record
Temperature  
Mean Temperature 55 °F 65 °F  
Max Temperature 69 °F 77 °F 91 °F (1911)
Min Temperature 41 °F 54 °F 36 °F (1925)
Degree Days  
Heating Degree Days 10 3  
Month to date heating degree days 127 137  
Since 1 July heating degree days 4997 4943  
Growing Degree Days 4 (Base 50)    
Moisture  
Dew Point 46 °F    
Average Humidity 72    
Maximum Humidity 96    
Minimum Humidity 48    
Precipitation  
Precipitation 0.02 in 0.15 in 1.11 in (2004)
Month to date precipitation 2.93 3.71  
Year to date precipitation 12.76 16.36  
Snow  
Snow 0.00 in - - ()
Month to date snowfall 0.0  
Since 1 July snowfall 0.0  
Since 1 September snowfall 0.0  
Snow Depth -    
Sea Level Pressure  
Sea Level Pressure 30.22 in    
Wind  
Wind Speed 3 mph (East)    
Max Wind Speed 14 mph    
Max Gust Speed 18 mph    
Visibility 10 miles    
Events Rain    
T = Trace of Precipitation, MM = Missing Value Source: NWS Daily Summary

Daily Weather History Graph

Daily Weather History Graph

Search for Another Location

Airport:

Trip Planner

Search our weather history database for the weather conditions in past years. The results will help you decide how hot, cold, wet, or windy it might be!

Date:

Astronomy

May. 27, 2013 Rise Set
Actual Time 6:03 AM EDT 8:43 PM EDT
Civil Twilight 5:31 AM EDT 9:14 PM EDT
Nautical Twilight 4:52 AM EDT 9:53 PM EDT
Astronomical Twilight 4:08 AM EDT 10:37 PM EDT
Moon 11:21 PM EDT (5/27) 8:38 AM EDT (5/27)
Length of Visible Light 15h 42m
Length of Day
14h 39m
Waning Gibbous, 91% of the Moon is Illuminated
May 27
Waning Gibbous
May 31
Last Quarter
Jun 8
New
Jun 16
First Quarter
Jun 23
Full

Hourly Weather History & Observations

Time (EDT) Temp. Dew Point Humidity Pressure Visibility Wind Dir Wind Speed Gust Speed Precip Events Conditions
12:53 AM 44.1 °F 39.9 °F 85% 30.29 in 10.0 mi Calm Calm - N/A   Clear
1:53 AM 43.0 °F 39.9 °F 89% 30.28 in 9.0 mi Calm Calm - N/A   Clear
2:53 AM 41.0 °F 39.0 °F 93% 30.28 in 10.0 mi Calm Calm - N/A   Clear
3:53 AM 43.0 °F 41.0 °F 93% 30.26 in 10.0 mi Calm Calm - N/A   Clear
4:53 AM 44.1 °F 42.1 °F 93% 30.26 in 10.0 mi Calm Calm - N/A   Clear
5:53 AM 45.0 °F 43.0 °F 93% 30.26 in 10.0 mi Calm Calm - N/A   Clear
6:53 AM 46.0 °F 44.1 °F 93% 30.28 in 9.0 mi Calm Calm - N/A   Mostly Cloudy
7:53 AM 48.9 °F 46.0 °F 90% 30.30 in 10.0 mi Calm Calm - N/A   Overcast
8:53 AM 51.1 °F 45.0 °F 80% 30.30 in 10.0 mi Calm Calm - N/A   Overcast
9:53 AM 52.0 °F 44.1 °F 74% 30.27 in 10.0 mi East 4.6 mph - 0.00 in Rain Light Rain
10:53 AM 54.0 °F 46.9 °F 77% 30.28 in 10.0 mi Calm Calm - 0.00 in Rain Light Rain
11:53 AM 54.0 °F 48.9 °F 83% 30.29 in 7.0 mi Calm Calm - 0.02 in Rain Light Rain
12:53 PM 54.0 °F 50.0 °F 86% 30.28 in 10.0 mi NE 4.6 mph - 0.00 in Rain Light Rain
1:53 PM 57.9 °F 48.0 °F 70% 30.26 in 10.0 mi NE 8.1 mph - 0.00 in   Overcast
2:53 PM 61.0 °F 44.1 °F 54% 30.23 in 10.0 mi East 6.9 mph - N/A   Overcast
3:53 PM 62.1 °F 45.0 °F 53% 30.20 in 10.0 mi East 9.2 mph - N/A   Overcast
4:53 PM 66.0 °F 46.9 °F 50% 30.16 in 10.0 mi East 8.1 mph - N/A   Scattered Clouds
5:53 PM 68.0 °F 50.0 °F 52% 30.15 in 10.0 mi East 6.9 mph - N/A   Clear
6:53 PM 66.9 °F 51.1 °F 57% 30.12 in 10.0 mi ESE 6.9 mph - N/A   Clear
7:53 PM 64.9 °F 51.1 °F 61% 30.12 in 10.0 mi East 6.9 mph - N/A   Clear
8:53 PM 63.0 °F 51.1 °F 65% 30.11 in 10.0 mi East 4.6 mph - N/A   Clear
9:53 PM 62.1 °F 50.0 °F 65% 30.10 in 10.0 mi ESE 3.5 mph - N/A   Clear
10:53 PM 61.0 °F 50.0 °F 67% 30.10 in 10.0 mi East 3.5 mph - N/A   Clear
11:53 PM 61.0 °F 50.0 °F 67% 30.09 in 10.0 mi Calm Calm - N/A   Clear